Location: Beadle
(51.4667°N, 109.0000°W)
Time: 04:50:29
(UTC+00:00)

Altair - Pass Details

Date: 29 May 2022
Orbit: 1501 x 1682 km, 47.2° (Epoch: 30 June)

Event Time Altitude Azimuth Distance (km) Brightness Sun altitude
Rises 06:04:51 0° 288° (WNW) 4,938 10.7 -15.4°
Reaches altitude 10° 06:08:54 10° 275° (W) 3,949 9.9 -15.5°
Maximum altitude 06:16:06 23° 229° (SW) 3,040 8.8 -15.8°
Enters shadow 06:20:56 16° 194° (SSW) 3,457 8.8 -16.0°
Drops below altitude 10° 06:23:14 10° 183° (S) 3,896 - -16.1°
Sets 06:27:14 0° 169° (S) 4,856 - -16.2°
